CZ-4 DEB, 26241

Orbit data source: Space-Track

CZ-4 DEB, 26241 is space debris in SSO originally from a launch on Thu, 14 Oct 1999 UTC launched from the Taiyaun Space Center, China (TSC). Debris objects in space refer to the collection of defunct objects orbiting the Earth. Examples of debris include non-operational satellites, rocket bodies, and fragments generated from explosions, collisions, or faulty payload assembly.

Loading next visibility...
Identifier
26241, 1999-057EF
Orbit
SSO
Country
Flag of CNCN / PRC
Related business
Manufacturer
Unknown
Mission
Spacecraft
Bus & Motor
Unknown
Mass
Unknown
Launch date (UTC)
1999-10-14 (26 years ago)
Launch vehicle
Unknown
Launch site
Taiyaun Space Center, China (TSC)
Object type
Payload
Rocket body
Debris
Shape & HBR
Unknown shape, 0.3 m
Radar Cross Section
Small (<0.1 m²)

Expand to show TLE details & history
Last TLE update: 20 hours ago

TLE from 20 hours ago
0 CZ-4 DEB
1 26241U 99057EF  25349.27575557  .00000351  00000-0  13300-3 0  9990
2 26241  98.9069 358.8743 0108040 210.2434 214.3269 14.34495622345318
Epoch: 2025-12-15T06:37Z
TLE epoch observation values (Epoch: 2025-12-15T06:37:05.281Z)
Latitude
62.59721°
Longitude
157.92515°
Altitude
851.562 km
Speed
7.399 km/s
True Right ascension
22h 45m 29s
True Declination
62° 27' 30"
Sunlit
Object was in daylight at epoch
Visualization orbit readout
Latitude
Unknown
Longitude
Unknown
Altitude
Unknown
Speed
Unknown
Apparent Right ascension
Unknown
Apparent Declination
Unknown
Sunlit
N/A
Visualization observer readout
Local Sidereal Time
01:17:53
Azimuth
Unknown
Elevation
Unknown
Doppler factor
Unknown
Orbital elements
Apogee altitude
851.162 km
Perigee altitude
696.621 km
Semi-major axis
7,152.028 km
Eccentricity
0.0108
Inclination
98.9069°
RAAN
358.8743°
Arg. of periapsis
210.2434°
True anomaly
213.63647°
Mean anomaly
214.3269°
Eccentric anomaly
213.98092°
Mean motion
3.58839 °/min
Orbital period
100.32 mins
BSTAR
0.000133
Loading maneuver chart data...
Computing Atmospheric mass density...
Loading historical data...
Loading historical data...
Loading historical data...
Loading historical data...
Loading historical data...
Loading historical data...
Loading historical data...

Documentation

Showing up to 5 results
|